• In Italy
  • List of Countries
  • For 7 days
  • Water Temperature
  • Satellite Maps
  • Weather Map
  • Weather Widgets
  • user-avatar
    Login

    Hourly Weather Middlesbrough

    Today, 18 October, Thursday

    Time Temperature Precipitation Wind Pressure Humidity
    00:00 +7°C° 0 mm 3 mps 768 mmHg 83%
    01:00 +7°C° 0 mm 3 mps 769 mmHg 83%
    02:00 +7°C° 0 mm 3 mps 769 mmHg 84%
    03:00 +6°C° 0 mm 2 mps 769 mmHg 84%
    04:00 +6°C° 0 mm 2 mps 769 mmHg 84%
    05:00 +6°C° 0 mm 2 mps 769 mmHg 84%
    06:00 +6°C° 0 mm 2 mps 769 mmHg 84%
    07:00 +7°C° 0 mm 2 mps 770 mmHg 81%
    08:00 +8°C° 0 mm 2 mps 770 mmHg 78%
    09:00 +9°C° 0 mm 2 mps 770 mmHg 75%
    10:00 +11°C° 0 mm 1 mps 770 mmHg 70%
    11:00 +12°C° 0 mm 1 mps 770 mmHg 66%
    12:00 +13°C° 0 mm 1 mps 770 mmHg 61%
    13:00 +13°C° 0 mm 1 mps 770 mmHg 61%
    14:00 +13°C° 0 mm 1 mps 769 mmHg 61%
    15:00 +13°C° 0 mm 1 mps 769 mmHg 61%
    16:00 +12°C° 0 mm 1 mps 769 mmHg 67%
    17:00 +11°C° 0 mm 1 mps 769 mmHg 72%
    18:00 +8°C° 0 mm 2 mps 769 mmHg 78%
    19:00 +8°C° 0 mm 2 mps 769 mmHg 80%
    20:00 +8°C° 0 mm 2 mps 769 mmHg 82%
    21:00 +7°C° 0 mm 2 mps 769 mmHg 84%
    22:00 +7°C° 0 mm 2 mps 769 mmHg 85%
    23:00 +7°C° 0 mm 2 mps 769 mmHg 85%

    Tomorrow, 19 October, Friday

    Time Temperature Precipitation Wind Pressure Humidity
    00:00 +5°C° 0 mm 3 mps 769 mmHg 85%
    01:00 +5°C° 0 mm 3 mps 768 mmHg 86%
    02:00 +5°C° 0 mm 3 mps 768 mmHg 87%
    03:00 +5°C° 0 mm 3 mps 768 mmHg 88%
    04:00 +5°C° 0 mm 3 mps 768 mmHg 89%
    05:00 +5°C° 0 mm 3 mps 768 mmHg 89%
    06:00 +7°C° 0 mm 3 mps 768 mmHg 90%
    07:00 +7°C° 0 mm 4 mps 768 mmHg 88%
    08:00 +8°C° 0 mm 4 mps 768 mmHg 85%
    09:00 +10°C° 0 mm 4 mps 768 mmHg 83%
    10:00 +11°C° 0 mm 4 mps 768 mmHg 80%
    11:00 +12°C° 0 mm 4 mps 768 mmHg 76%
    12:00 +13°C° 0 mm 5 mps 768 mmHg 73%
    13:00 +14°C° 0 mm 4 mps 768 mmHg 73%
    14:00 +14°C° 0 mm 4 mps 768 mmHg 73%
    15:00 +14°C° 0 mm 4 mps 768 mmHg 74%
    16:00 +13°C° 0 mm 4 mps 768 mmHg 79%
    17:00 +11°C° 0 mm 3 mps 768 mmHg 84%
    18:00 +10°C° 0 mm 3 mps 768 mmHg 89%
    19:00 +10°C° 0 mm 3 mps 769 mmHg 89%
    20:00 +10°C° 0 mm 3 mps 769 mmHg 90%
    21:00 +10°C° 0 mm 3 mps 769 mmHg 90%
    22:00 +9°C° 0 mm 3 mps 769 mmHg 90%
    23:00 +9°C° 0 mm 3 mps 769 mmHg 90%

    Day after tomorrow, 20 October, Saturday

    Time Temperature Precipitation Wind Pressure Humidity
    00:00 +9°C° 0 mm 2 mps 769 mmHg 90%
    01:00 +9°C° 0 mm 3 mps 769 mmHg 90%
    02:00 +9°C° 0 mm 3 mps 770 mmHg 91%
    03:00 +9°C° 0 mm 3 mps 770 mmHg 91%
    04:00 +9°C° 0 mm 3 mps 770 mmHg 91%
    05:00 +9°C° 0 mm 3 mps 770 mmHg 91%
    06:00 +9°C° 0 mm 3 mps 770 mmHg 91%
    07:00 +10°C° 0 mm 3 mps 770 mmHg 88%
    08:00 +11°C° 0 mm 4 mps 770 mmHg 85%
    09:00 +12°C° 0 mm 4 mps 770 mmHg 82%
    10:00 +14°C° 0 mm 4 mps 770 mmHg 80%
    11:00 +15°C° 0 mm 5 mps 770 mmHg 77%
    12:00 +16°C° 0 mm 5 mps 770 mmHg 75%
    13:00 +16°C° 0 mm 5 mps 770 mmHg 78%
    14:00 +15°C° 0 mm 5 mps 770 mmHg 80%
    15:00 +15°C° 0 mm 5 mps 769 mmHg 83%
    16:00 +15°C° 0 mm 5 mps 770 mmHg 86%
    17:00 +14°C° 0 mm 4 mps 770 mmHg 89%
    18:00 +13°C° 0 mm 4 mps 770 mmHg 92%
    19:00 +13°C° 0 mm 4 mps 770 mmHg 93%
    20:00 +13°C° 0 mm 4 mps 770 mmHg 93%
    21:00 +13°C° 0 mm 3 mps 770 mmHg 94%
    22:00 +13°C° 0 mm 3 mps 770 mmHg 94%
    23:00 +13°C° 0 mm 3 mps 770 mmHg 94%

    21 October, Sunday

    Time Temperature Precipitation Wind Pressure Humidity
    00:00 +13°C° 0 mm 3 mps 770 mmHg 94%
    01:00 +13°C° 0 mm 3 mps 769 mmHg 94%
    02:00 +13°C° 0 mm 4 mps 769 mmHg 94%
    03:00 +14°C° 0 mm 4 mps 769 mmHg 94%
    04:00 +14°C° 0 mm 4 mps 768 mmHg 94%
    05:00 +14°C° 0 mm 4 mps 768 mmHg 94%
    06:00 +14°C° 0 mm 4 mps 768 mmHg 94%
    07:00 +14°C° 0 mm 4 mps 767 mmHg 92%
    08:00 +15°C° 0 mm 5 mps 767 mmHg 91%
    09:00 +15°C° 0 mm 5 mps 767 mmHg 89%
    10:00 +16°C° 0 mm 5 mps 767 mmHg 89%
    11:00 +16°C° 0 mm 6 mps 766 mmHg 88%
    12:00 +16°C° 0 mm 6 mps 766 mmHg 87%
    13:00 +16°C° 0.1 mm 6 mps 766 mmHg 86%
    14:00 +16°C° 0.1 mm 6 mps 767 mmHg 85%
    15:00 +16°C° 0.1 mm 6 mps 767 mmHg 84%
    16:00 +14°C° 0.1 mm 6 mps 767 mmHg 83%
    17:00 +13°C° 0.1 mm 6 mps 768 mmHg 81%
    18:00 +11°C° 0.1 mm 6 mps 769 mmHg 79%
    19:00 +10°C° 0 mm 6 mps 770 mmHg 81%
    20:00 +9°C° 0 mm 5 mps 771 mmHg 82%
    21:00 +8°C° 0 mm 5 mps 771 mmHg 84%
    22:00 +8°C° 0 mm 5 mps 772 mmHg 84%
    23:00 +7°C° 0 mm 5 mps 772 mmHg 85%

    22 October, Monday

    Time Temperature Precipitation Wind Pressure Humidity
    00:00 +7°C° 0 mm 5 mps 773 mmHg 86%
    01:00 +7°C° 0 mm 5 mps 773 mmHg 84%
    02:00 +6°C° 0 mm 5 mps 773 mmHg 82%
    03:00 +6°C° 0 mm 4 mps 774 mmHg 80%
    04:00 +6°C° 0 mm 4 mps 774 mmHg 80%
    05:00 +5°C° 0 mm 4 mps 774 mmHg 80%
    06:00 +5°C° 0 mm 4 mps 775 mmHg 80%
    07:00 +6°C° 0 mm 5 mps 775 mmHg 78%
    08:00 +7°C° 0 mm 5 mps 775 mmHg 75%
    09:00 +8°C° 0 mm 6 mps 776 mmHg 73%
    10:00 +9°C° 0 mm 6 mps 776 mmHg 69%
    11:00 +10°C° 0 mm 6 mps 776 mmHg 66%
    12:00 +10°C° 0 mm 6 mps 776 mmHg 62%
    13:00 +10°C° 0 mm 6 mps 776 mmHg 64%
    14:00 +10°C° 0 mm 6 mps 775 mmHg 65%
    15:00 +10°C° 0 mm 6 mps 775 mmHg 66%
    16:00 +10°C° 0 mm 6 mps 775 mmHg 70%
    17:00 +9°C° 0 mm 6 mps 775 mmHg 74%
    18:00 +8°C° 0 mm 6 mps 775 mmHg 78%
    19:00 +8°C° 0 mm 7 mps 775 mmHg 78%
    20:00 +8°C° 0 mm 7 mps 775 mmHg 78%
    21:00 +8°C° 0 mm 7 mps 774 mmHg 78%
    22:00 +7°C° 0 mm 8 mps 774 mmHg 78%
    23:00 +9°C° 0 mm 8 mps 774 mmHg 79%

    23 October, Tuesday

    Time Temperature Precipitation Wind Pressure Humidity
    00:00 +9°C° 0 mm 8 mps 773 mmHg 79%
    01:00 +9°C° 0 mm 8 mps 773 mmHg 79%
    02:00 +9°C° 0 mm 8 mps 772 mmHg 80%
    03:00 +9°C° 0 mm 8 mps 772 mmHg 80%
    04:00 +9°C° 0 mm 8 mps 772 mmHg 80%
    05:00 +9°C° 0 mm 8 mps 772 mmHg 80%
    06:00 +9°C° 0 mm 8 mps 772 mmHg 79%
    07:00 +9°C° 0 mm 8 mps 772 mmHg 78%
    08:00 +10°C° 0 mm 8 mps 772 mmHg 76%
    09:00 +10°C° 0 mm 8 mps 772 mmHg 74%
    10:00 +11°C° 0 mm 8 mps 772 mmHg 72%
    11:00 +12°C° 0 mm 8 mps 772 mmHg 70%
    12:00 +14°C° 0 mm 7 mps 772 mmHg 68%
    13:00 +12°C° 0 mm 7 mps 771 mmHg 69%
    14:00 +13°C° 0 mm 6 mps 771 mmHg 70%
    15:00 +13°C° 0 mm 6 mps 771 mmHg 72%
    16:00 +11°C° 0 mm 6 mps 771 mmHg 74%
    17:00 +10°C° 0 mm 5 mps 772 mmHg 76%
    18:00 +9°C° 0 mm 5 mps 772 mmHg 78%
    19:00 +10°C° 0 mm 4 mps 772 mmHg 80%
    20:00 +8°C° 0 mm 4 mps 772 mmHg 82%
    21:00 +8°C° 0 mm 4 mps 772 mmHg 84%
    22:00 +7°C° 0 mm 4 mps 772 mmHg 85%
    23:00 +7°C° 0 mm 4 mps 772 mmHg 85%
    Show more